Location: Canet
(43.3261°N, 5.3723°E)
Time: 18:10:47
(UTC+00:00)

Cosmos 1627 Rocket - Pass Details

Date: 24 January 2021
Orbit: 951 x 1003 km, 82.9° (Epoch: 02 March)

Event Time Altitude Azimuth Distance (km) Brightness Sun altitude
Rises 18:19:01 0° 184° (S) 3,629 7.7 -18.0°
Reaches altitude 10° 18:21:29 10° 184° (S) 2,693 7.0 -18.4°
Maximum altitude 18:27:40 87° 95° (E) 981 4.4 -19.5°
Drops below altitude 10° 18:33:59 10° 9° (N) 2,747 6.7 -20.6°
Sets 18:36:31 0° 9° (N) 3,707 7.4 -21.1°
